• In Austria
  • List of Countries
  • For 7 days
  • Water Temperature
  • Satellite Maps
  • Weather Map
  • News
  • Weather Widgets
  • user-avatar
    Login

    Hourly Weather Korçe

    Today, 14 November, Wednesday

    Time Temperature Precipitation Wind Pressure Humidity
    00:00 +7°C° 0 mm 1 mps 672 mmHg 61%
    01:00 +7°C° 0 mm 1 mps 671 mmHg 61%
    02:00 +6°C° 0 mm 1 mps 671 mmHg 62%
    03:00 +6°C° 0 mm 1 mps 671 mmHg 62%
    04:00 +6°C° 0 mm 1 mps 671 mmHg 62%
    05:00 +6°C° 0 mm 1 mps 671 mmHg 62%
    06:00 +6°C° 0 mm 1 mps 671 mmHg 62%
    07:00 +6°C° 0 mm 1 mps 671 mmHg 62%
    08:00 +9°C° 0 mm 1 mps 671 mmHg 55%
    09:00 +11°C° 0 mm 1 mps 672 mmHg 47%
    10:00 +13°C° 0 mm 1 mps 672 mmHg 39%
    11:00 +14°C° 0 mm 1 mps 672 mmHg 38%
    12:00 +15°C° 0 mm 1 mps 672 mmHg 36%
    13:00 +16°C° 0 mm 2 mps 672 mmHg 34%
    14:00 +15°C° 0 mm 2 mps 671 mmHg 40%
    15:00 +13°C° 0 mm 1 mps 671 mmHg 46%
    16:00 +12°C° 0 mm 1 mps 670 mmHg 52%
    17:00 +11°C° 0 mm 1 mps 670 mmHg 55%
    18:00 +10°C° 0 mm 1 mps 670 mmHg 59%
    19:00 +9°C° 0 mm 1 mps 670 mmHg 63%
    20:00 +9°C° 0 mm 1 mps 670 mmHg 66%
    21:00 +8°C° 0 mm 1 mps 670 mmHg 68%
    22:00 +7°C° 0 mm 2 mps 670 mmHg 70%
    23:00 +6°C° 0 mm 2 mps 670 mmHg 72%

    Tomorrow, 15 November, Thursday

    Time Temperature Precipitation Wind Pressure Humidity
    00:00 +6°C° 0 mm 2 mps 669 mmHg 74%
    01:00 +6°C° 0 mm 2 mps 669 mmHg 76%
    02:00 +5°C° 0 mm 2 mps 669 mmHg 77%
    03:00 +5°C° 0 mm 2 mps 669 mmHg 78%
    04:00 +4°C° 0 mm 2 mps 668 mmHg 79%
    05:00 +4°C° 0 mm 2 mps 669 mmHg 79%
    06:00 +4°C° 0 mm 2 mps 669 mmHg 78%
    07:00 +4°C° 0 mm 2 mps 669 mmHg 78%
    08:00 +6°C° 0 mm 2 mps 669 mmHg 69%
    09:00 +8°C° 0 mm 2 mps 670 mmHg 59%
    10:00 +10°C° 0 mm 2 mps 670 mmHg 49%
    11:00 +10°C° 0 mm 2 mps 670 mmHg 45%
    12:00 +12°C° 0 mm 2 mps 670 mmHg 40%
    13:00 +12°C° 0 mm 2 mps 670 mmHg 35%
    14:00 +10°C° 0 mm 2 mps 670 mmHg 38%
    15:00 +9°C° 0 mm 2 mps 669 mmHg 41%
    16:00 +8°C° 0 mm 2 mps 669 mmHg 44%
    17:00 +7°C° 0 mm 2 mps 669 mmHg 47%
    18:00 +6°C° 0 mm 2 mps 669 mmHg 50%
    19:00 +4°C° 0 mm 2 mps 669 mmHg 52%
    20:00 +4°C° 0 mm 2 mps 669 mmHg 55%
    21:00 +3°C° 0 mm 2 mps 669 mmHg 58%
    22:00 +3°C° 0 mm 2 mps 669 mmHg 60%
    23:00 +2°C° 0 mm 2 mps 669 mmHg 62%

    Day after tomorrow, 16 November, Friday

    Time Temperature Precipitation Wind Pressure Humidity
    00:00 +2°C° 0 mm 2 mps 669 mmHg 65%
    01:00 +1°C° 0 mm 2 mps 669 mmHg 67%
    02:00 +1°C° 0 mm 2 mps 669 mmHg 69%
    03:00 +1°C° 0 mm 2 mps 668 mmHg 70%
    04:00 +1°C° 0 mm 2 mps 668 mmHg 72%
    05:00 +1°C° 0 mm 2 mps 668 mmHg 72%
    06:00 +1°C° 0 mm 2 mps 669 mmHg 73%
    07:00 +1°C° 0 mm 2 mps 669 mmHg 73%
    08:00 +2°C° 0 mm 2 mps 669 mmHg 65%
    09:00 +3°C° 0 mm 3 mps 670 mmHg 57%
    10:00 +5°C° 0 mm 3 mps 670 mmHg 49%
    11:00 +5°C° 0 mm 3 mps 670 mmHg 47%
    12:00 +7°C° 0 mm 3 mps 670 mmHg 45%
    13:00 +8°C° 0 mm 3 mps 670 mmHg 43%
    14:00 +7°C° 0 mm 3 mps 670 mmHg 46%
    15:00 +6°C° 0 mm 2 mps 669 mmHg 50%
    16:00 +5°C° 0 mm 2 mps 669 mmHg 53%
    17:00 +4°C° 0 mm 2 mps 669 mmHg 57%
    18:00 +3°C° 0 mm 2 mps 669 mmHg 61%
    19:00 +2°C° 0 mm 2 mps 669 mmHg 65%
    20:00 +2°C° 0 mm 2 mps 669 mmHg 68%
    21:00 +1°C° 0 mm 2 mps 669 mmHg 70%
    22:00 +1°C° 0 mm 2 mps 670 mmHg 72%
    23:00 -1°C° 0 mm 2 mps 670 mmHg 74%

    17 November, Saturday

    Time Temperature Precipitation Wind Pressure Humidity
    00:00 -1°C° 0 mm 2 mps 669 mmHg 76%
    01:00 -1°C° 0 mm 2 mps 669 mmHg 78%
    02:00 -1°C° 0 mm 2 mps 669 mmHg 79%
    03:00 -2°C° 0 mm 2 mps 669 mmHg 80%
    04:00 -2°C° 0 mm 2 mps 669 mmHg 81%
    05:00 -2°C° 0 mm 2 mps 669 mmHg 80%
    06:00 -2°C° 0 mm 3 mps 669 mmHg 80%
    07:00 -2°C° 0 mm 3 mps 669 mmHg 80%
    08:00 0°C° 0 mm 3 mps 670 mmHg 71%
    09:00 +2°C° 0 mm 3 mps 670 mmHg 62%
    10:00 +4°C° 0 mm 3 mps 671 mmHg 53%
    11:00 +4°C° 0 mm 3 mps 671 mmHg 51%
    12:00 +5°C° 0 mm 3 mps 670 mmHg 49%
    13:00 +5°C° 0 mm 3 mps 670 mmHg 48%
    14:00 +5°C° 0 mm 3 mps 670 mmHg 51%
    15:00 +4°C° 0 mm 3 mps 670 mmHg 55%
    16:00 +3°C° 0 mm 3 mps 669 mmHg 59%
    17:00 +2°C° 0 mm 3 mps 669 mmHg 63%
    18:00 +1°C° 0 mm 3 mps 669 mmHg 66%
    19:00 +1°C° 0 mm 3 mps 669 mmHg 70%
    20:00 0°C° 0 mm 3 mps 669 mmHg 71%
    21:00 0°C° 0 mm 3 mps 669 mmHg 72%
    22:00 0°C° 0 mm 3 mps 669 mmHg 73%
    23:00 -1°C° 0 mm 4 mps 668 mmHg 72%

    18 November, Sunday

    Time Temperature Precipitation Wind Pressure Humidity
    00:00 -1°C° 0 mm 4 mps 668 mmHg 72%
    01:00 -1°C° 0 mm 4 mps 668 mmHg 71%
    02:00 -1°C° 0.1 mm 4 mps 667 mmHg 71%
    03:00 -1°C° 0.1 mm 4 mps 667 mmHg 72%
    04:00 -1°C° 0.1 mm 4 mps 667 mmHg 72%
    05:00 -1°C° 0.2 mm 4 mps 666 mmHg 73%
    06:00 -1°C° 0.2 mm 4 mps 666 mmHg 74%
    07:00 -1°C° 0.2 mm 4 mps 666 mmHg 75%
    08:00 0°C° 0.5 mm 4 mps 666 mmHg 74%
    09:00 0°C° 0.5 mm 5 mps 666 mmHg 73%
    10:00 0°C° 0.5 mm 5 mps 666 mmHg 73%
    11:00 +1°C° 0.5 mm 5 mps 665 mmHg 72%
    12:00 +1°C° 0.5 mm 5 mps 665 mmHg 72%
    13:00 +1°C° 0.5 mm 5 mps 664 mmHg 72%
    14:00 +1°C° 0.3 mm 5 mps 664 mmHg 74%
    15:00 +1°C° 0.3 mm 4 mps 664 mmHg 75%
    16:00 0°C° 0.3 mm 4 mps 663 mmHg 77%
    17:00 0°C° 0 mm 4 mps 663 mmHg 78%
    18:00 0°C° 0 mm 4 mps 663 mmHg 78%
    19:00 0°C° 0 mm 4 mps 663 mmHg 79%
    20:00 0°C° 0 mm 4 mps 662 mmHg 80%
    21:00 0°C° 0 mm 4 mps 662 mmHg 81%
    22:00 0°C° 0 mm 4 mps 662 mmHg 82%
    23:00 0°C° 0.2 mm 4 mps 661 mmHg 83%

    19 November, Monday

    Time Temperature Precipitation Wind Pressure Humidity
    00:00 +1°C° 0.2 mm 3 mps 661 mmHg 84%
    01:00 +1°C° 0.2 mm 3 mps 661 mmHg 85%
    02:00 +1°C° 0.4 mm 3 mps 661 mmHg 85%
    03:00 +1°C° 0.4 mm 3 mps 660 mmHg 86%
    04:00 +1°C° 0.4 mm 3 mps 660 mmHg 86%
    05:00 +1°C° 0.1 mm 3 mps 660 mmHg 86%
    06:00 +1°C° 0.1 mm 3 mps 660 mmHg 86%
    07:00 +1°C° 0.1 mm 3 mps 660 mmHg 86%
    08:00 +2°C° 0.2 mm 3 mps 660 mmHg 84%
    09:00 +2°C° 0.2 mm 3 mps 660 mmHg 83%
    10:00 +4°C° 0.2 mm 2 mps 661 mmHg 82%
    11:00 +4°C° 0.4 mm 2 mps 660 mmHg 82%
    12:00 +4°C° 0.4 mm 2 mps 660 mmHg 82%
    13:00 +5°C° 0.4 mm 2 mps 660 mmHg 82%
    14:00 +5°C° 0.3 mm 2 mps 660 mmHg 84%
    15:00 +4°C° 0.3 mm 2 mps 660 mmHg 85%
    16:00 +4°C° 0.3 mm 2 mps 660 mmHg 86%
    17:00 +5°C° 0.5 mm 1 mps 660 mmHg 87%
    18:00 +5°C° 0.5 mm 1 mps 660 mmHg 88%
    19:00 +5°C° 0.5 mm 1 mps 660 mmHg 89%
    20:00 +5°C° 1 mm 1 mps 660 mmHg 90%
    21:00 +5°C° 1 mm 1 mps 660 mmHg 90%
    22:00 +5°C° 1 mm 1 mps 660 mmHg 91%
    23:00 +5°C° 1.1 mm 1 mps 660 mmHg 92%
    Show more